Simultaneous Nadir Overpasses (SNOs) Predictions

Prediction of SNOs between AURA and LANDSAT-8 Satellite Orbit:

Table of predicted SNOs for the next 14.0 days since TLE Epoch: 11/18/2024
Index Date (AURA) Time (AURA) Lat,Lon (AURA) SZA (AURA ) Date (LANDSAT-8) Time (LANDSAT-8) Lat,Lon (LANDSAT-8) SZA (LANDSAT-8 ) Distance(km) Time Diff (sec)
1 12/01/2024 19:33:05 -72.25, 69.48 85.82 12/01/2024 19:32:00 -72.24, 66.73 85.88 93.25 65
2 12/01/2024 20:22:29 72.36,-123.06 94.30 12/01/2024 20:21:23 72.35,-125.43 94.24 79.86 66
3 12/01/2024 21:11:55 -72.64, 44.08 85.44 12/01/2024 21:10:46 -72.62, 42.71 85.48 45.72 69
4 12/01/2024 22:01:19 72.74,-148.47 94.68 12/01/2024 22:00:09 72.73,-149.44 94.64 32.16 70
5 12/01/2024 22:50:45 -73.02, 18.65 85.06 12/01/2024 22:49:32 -73.00, 18.71 85.09 3.30 73
6 12/01/2024 23:40:06 72.97,-173.59 94.91 12/01/2024 23:38:57 73.00,-173.64 94.93 3.37 69
7 12/02/2024 00:29:27 -72.98, -5.95 85.08 12/02/2024 00:28:25 -73.00, -6.00 85.07 2.62 62
8 12/02/2024 01:18:49 72.99, 161.70 94.93 12/02/2024 01:17:50 73.00, 161.65 94.94 2.48 59
9 12/02/2024 02:08:10 -73.00, -30.66 85.06 12/02/2024 02:07:18 -73.00, -30.71 85.06 2.03 52
10 12/02/2024 02:57:32 73.00, 136.99 94.96 12/02/2024 02:56:43 73.01, 136.94 94.96 1.89 49



Historial Predications of SNOs between AURA and LANDSAT-8
